INFORMACIÓN METAR y TAF
METAR FOR LGSK
ADDS - METARS form results

(0214 UTC 15 August 2020)
Data provider http://aviationweather.gov/metar/data/
 
Forecast for: LGSK (SKIATHOS ISLAND , GR)
Text: TAF LGSK 150200Z 1503/1512 VRB05KT 9999 FEW025
Forecast period: 0300 to 1200 UTC 15 August 2020
Forecast type: FROM: standard forecast or significant change
Winds: variable direction winds at 6 MPH (5 knots; 2.6 m/s)
Visibility: 6 or more miles (10+ km)
Ceiling: at least 12,000 feet AGL
Clouds: few clouds at 2500 feet AGL
Weather: no significant weather forecast for this period

MAPA DE AEROPUERTO

INFORMACIÓN DE PISTA
Pista 02 Longitud 5341 ft Ancho 98 ft
Elevación 9 ft Umbral desplazado 190 ft Rumbo de pista 19
Pista 20 Longitud 5341 ft Ancho 98 ft
Elevación 54 ft Umbral desplazado 0 ft Rumbo de pista 199

FRECUANCIAS DEL AEROPUERTO
Tipo A/G Nombre SKIATHOS R Frecuencia 563.7 MHZ
Tipo APP Nombre SKIATHOS A Frecuencia 126.05 MHZ
Tipo TWR Nombre SKIATHOS T Frecuencia 126.05 MHZ

RADIO AYUDAS DEL AEROPUERTO
Tipo NDB Nombre Skiathos Frecuencia 326 KHZ